Location: Bern�tre
(50.1974°N, 2.0915°E)
Time: 02:51:06
(UTC+00:00)

Lacrosse 5 rocket - Pass Details

Date: 18 September 2020
Orbit: 460 x 636 km, 57.0° (Epoch: 24 October)

Event Time Altitude Azimuth Distance (km) Brightness Sun altitude
Rises 21:25:22 0° 294° (WNW) 2,828 5.9 -30.3°
Reaches altitude 10° 21:27:44 10° 303° (WNW) 1,952 4.9 -30.6°
Enters shadow 21:30:48 32° 338° (NNW) 1,055 3.2 -30.9°
